SL-14 DEB, 45285

Orbit data source: Space-Track

SL-14 DEB, 45285 is space debris in LEO originally from a launch on Thu, 15 Aug 1991 UTC launched from the Plesetsk Missile And Space Complex (PKMTR). Debris objects in space refer to the collection of defunct objects orbiting the Earth. Examples of debris include non-operational satellites, rocket bodies, and fragments generated from explosions, collisions, or faulty payload assembly.

Loading next visibility...
Identifier
45285, 1991-056X
Orbit
LEO
Country
Flag of CISCIS
Related business
Manufacturer
Unknown
Mission
Spacecraft
Bus & Motor
Unknown
Mass
Unknown
Launch date (UTC)
1991-08-15 (34 years ago)
Launch vehicle
Unknown
Launch site
Plesetsk Missile And Space Complex (PKMTR)
Object type
Payload
Rocket body
Debris
Shape & HBR
Unknown shape, 0.1 m
Radar Cross Section
Small (<0.1 m²)

Expand to show TLE details & history
Last TLE update: 8 hours ago

TLE from 8 hours ago
0 SL-14 DEB
1 45285U 91056X   26035.69462632  .00000041  00000-0  92410-4 0  9994
2 45285  82.5648 281.4627 0113885  26.9099 333.7859 13.00591718283488
Epoch: 2026-02-04T16:40Z
TLE epoch observation values (Epoch: 2026-02-04T16:40:15.714Z)
Latitude
0.00007°
Longitude
-103.46029°
Altitude
1,184.701 km
Speed
7.298 km/s
True Right ascension
18h 45m 51s
True Declination
0° 00' 00"
Sunlit
Object was in daylight at epoch
Visualization orbit readout
Latitude
Unknown
Longitude
Unknown
Altitude
Unknown
Speed
Unknown
Apparent Right ascension
Unknown
Apparent Declination
Unknown
Sunlit
N/A
Visualization observer readout
Local Sidereal Time
02:25:55
Azimuth
Unknown
Elevation
Unknown
Doppler factor
Unknown
Orbital elements
Apogee altitude
1,343.993 km
Perigee altitude
1,170.086 km
Semi-major axis
7,635.176 km
Eccentricity
0.01139
Inclination
82.5648°
RAAN
281.4627°
Arg. of periapsis
26.9099°
True anomaly
333.20199°
Mean anomaly
333.7859°
Eccentric anomaly
333.4947°
Mean motion
3.25323 °/min
Orbital period
110.66 mins
BSTAR
0.00009241
Loading maneuver chart data...
Computing Atmospheric mass density...
Loading historical data...
Loading historical data...
Loading historical data...
Loading historical data...
Loading historical data...
Loading historical data...
Loading historical data...

Documentation

Showing up to 5 results
|